map of ZAL home
ZAL - Airport
Location
City:  Valdivia, Los Ríos, Chile
Name:Pichoy Airport
ICAO:SCVD
IATA:ZAL

Details
Type:Airport (Aerodrome, Airfield)
Use:Public/Civil
Latitude:39°38'58"S (-39.649443)
Longitude:73°05'11"W (-73.086388)
Elevation:59 ft (18 m)
Variation:7.22°E (WMM2015v2 magnetic declination)
-0.13° annual change
Runways:1
Longest:6890 × 148 ft (2100 × 45 m), paved

Time
Time Zone:UTC-4 (DST-3)
Local Time:

Weather
METAR:SCVD 041400Z 23002KT CAVOK 24/16 Q1010
TAF:SCVD 041010Z 0412/0424 VRB04KT CAVOK TN11/0412Z TX32/0420Z
TEMPO 0412/0413 0800 FG BKN001
BECMG 0418/0420 28008KT

Related Locations
Nearby:
Farthest:WUA: 12436 mi / 20014 km
Wuhai [Wuhai Regional], 15, CN

Find:

   beyond  
but within

Other Information
Maps:
NOTAMs:
Links:
Sources:

  
  • flag of Chile
  • flag of Los Ríos
  

Sectional Chart

Flight Planning
at skyvector.com

Satellite Image

Google Maps Satellite view

 

Copyright © 2004-2019 Karl L. Swartz. All rights reserved.
The Great Circle Mapper name and logo are trademarks of the Great Circle Mapper.
All other trademarks mentioned herein belong to their respective owners.
Please see credits for attibutions and further copyright information.

  Follow gcmap on Facebook Follow gcmap on Twitter GCmap on LinkedIn

hCard Microformat

Geo Microformat